This is the latest recevied weather packets stored in our database for station/object KI4NG. If no packets are shown the sender has not sent any weather packets the latest 10 day(s).
| Time | Temp. | Humidity | Pressure | Rain* | Wind** | Luminosity | Snow |
|---|---|---|---|---|---|---|---|
| 1777961672 | 15.56° C | 68% | 1013.6 hPa | 0 mm | - | 0 W/m² | - |
| 1777961369 | 16.11° C | 67% | 1013.8 hPa | 0 mm | - | 0 W/m² | - |
| 1777961066 | 16.11° C | 67% | 1013.7 hPa | 0 mm | - | 0 W/m² | - |
| 1777960762 | 16.11° C | 67% | 1013.6 hPa | 0 mm | - | 0 W/m² | - |
| 1777960458 | 16.11° C | 67% | 1013.6 hPa | 0 mm | - | 0 W/m² | - |
| 1777960155 | 16.67° C | 66% | 1013.7 hPa | 0 mm | - | 0 W/m² | - |
| 1777959852 | 16.11° C | 66% | 1013.5 hPa | 0 mm | - | 0 W/m² | - |
| 1777959550 | 16.11° C | 66% | 1013.6 hPa | 0 mm | - | 0 W/m² | - |
| 1777959247 | 16.67° C | 67% | 1013.6 hPa | 0 mm | - | 0 W/m² | - |
| 1777958944 | 16.67° C | 65% | 1013.4 hPa | 0 mm | - | 0 W/m² | - |
| 1777958641 | 16.67° C | 65% | 1013.7 hPa | 0 mm | - | 0 W/m² | - |
| 1777958338 | 16.67° C | 64% | 1013.5 hPa | 0 mm | - | 0 W/m² | - |
| 1777958035 | 17.22° C | 64% | 1013.6 hPa | 0 mm | - | 0 W/m² | - |
| 1777957733 | 16.67° C | 64% | 1013.4 hPa | 0 mm | - | 0 W/m² | - |
| 1777957432 | 16.67° C | 65% | 1013.5 hPa | 0 mm | - | 0 W/m² | - |
| 1777957128 | 17.22° C | 64% | 1013.5 hPa | 0 mm | - | 0 W/m² | - |
| 1777956824 | 17.22° C | 64% | 1013.1 hPa | 0 mm | - | 0 W/m² | - |
| 1777956522 | 17.22° C | 66% | 1013.3 hPa | 0 mm | - | 0 W/m² | - |
| 1777956218 | 16.67° C | 66% | 1013.1 hPa | 0 mm | - | 0 W/m² | - |
| 1777955915 | 17.22° C | 66% | 1013.1 hPa | 0 mm | - | 0 W/m² | - |
| 1777955612 | 17.22° C | 66% | 1013 hPa | 0 mm | - | 0 W/m² | - |
| 1777955307 | 17.22° C | 66% | 1013 hPa | 0 mm | - | 0 W/m² | - |
| 1777955005 | 17.22° C | 67% | 1012.7 hPa | 0 mm | - | 0 W/m² | - |
| 1777954701 | 16.67° C | 69% | 1012.8 hPa | 0 mm | - | 0 W/m² | - |
| 1777954399 | 17.22° C | 68% | 1012.8 hPa | 0 mm | - | 0 W/m² | - |
* Rain latest hour (hover to see other rain measurements)
** Current wind speed in m/s (hover to see current wind gust speed)